FW3884 Weather Reports


Display with metric or nautical units.
time (UTC)temp
F
wind
direction
speed
MPH
gust
MPH
rain 1hr
in
rain 24hr
in
rain mn
in
humidity
%
barometer
mb
20210802191644 78 0.0 0.0 0.00 0.00 0.00 47 1015.3
20210802190250 78 0.0 0.0 0.00 0.00 0.00 44 1015.4
20210802184623 78 0.0 0.0 0.00 0.00 0.00 50 1015.5
20210802183155 77 0.0 0.0 0.00 0.00 0.00 48 1015.5
20210802181634 77 0.0 0.0 0.00 0.00 0.00 50 1015.6
20210802180113 76 0.0 0.0 0.00 0.00 0.00 50 1015.6
20210802174607 75 0.0 0.0 0.00 0.00 0.00 47 1015.7
20210802173105 76 0.0 0.0 0.00 0.00 0.00 50 1015.7
20210802171654 75 0.0 0.0 0.00 0.00 0.00 50 1015.8
20210802170222 74 0.0 0.0 0.00 0.00 0.00 51 1015.9
20210802164632 74 0.0 0.0 0.00 0.00 0.00 54 1016.0
20210802163109 74 0.0 0.0 0.00 0.00 0.00 52 1016.1
20210802161738 74 0.0 0.0 0.00 0.00 0.00 57 1016.2
20210802160047 73 0.0 0.0 0.00 0.00 0.00 55 1016.1
20210802154535 73 0.0 0.0 0.00 0.00 0.00 57 1016.0
20210802153034 72 0.0 0.0 0.00 0.00 0.00 61 1016.1
20210802151525 71 0.0 0.0 0.00 0.00 0.00 58 1015.9
20210802150058 71 0.0 0.0 0.00 0.00 0.00 63 1016.0
20210802144559 70 0.0 0.0 0.00 0.00 0.00 68 1016.0
20210802143030 69 0.0 0.0 0.00 0.00 0.00 67 1015.7
20210802141526 68 0.0 0.0 0.00 0.00 0.00 68 1015.7
20210802140044 66 0.0 0.0 0.00 0.00 0.00 71 1015.6
20210802134509 65 0.0 0.0 0.00 0.00 0.00 75 1015.5
20210802133007 64 0.0 0.0 0.00 0.00 0.00 77 1015.3
20210802131512 63 0.0 0.0 0.00 0.00 0.00 82 1015.4
20210802124636 61 0.0 0.0 0.00 0.00 0.00 84 1014.9
20210802123201 61 0.0 0.0 0.00 0.00 0.00 85 1014.5
20210802121744 60 0.0 0.0 0.00 0.00 0.00 84 1014.2
20210802120221 60 0.0 0.0 0.00 0.00 0.00 85 1013.9
20210802114649 60 0.0 0.0 0.00 0.00 0.00 86 1013.7
20210802113142 59 0.0 0.0 0.00 0.00 0.00 86 1013.4
20210802111658 59 0.0 0.0 0.00 0.00 0.00 87 1013.4
20210802110214 59 0.0 0.0 0.00 0.00 0.00 87 1013.2
20210802104724 58 0.0 0.0 0.00 0.00 0.00 88 1013.2
20210802103146 59 0.0 0.0 0.00 0.00 0.00 87 1013.1
20210802101652 59 0.0 0.0 0.00 0.00 0.00 87 1013.0
20210802100110 59 0.0 0.0 0.00 0.00 0.00 87 1012.8
20210802094644 59 0.0 0.0 0.00 0.00 0.00 87 1012.7
20210802093209 59 0.0 0.0 0.00 0.00 0.00 87 1012.5
20210802091622 59 0.0 0.0 0.00 0.00 0.00 86 1012.4
20210802090137 60 0.0 0.0 0.00 0.00 0.00 85 1012.3
20210802084554 60 0.0 0.0 0.00 0.00 0.00 84 1012.1
20210802083041 60 0.0 0.0 0.00 0.00 0.00 84 1012.0
20210802081553 60 0.0 0.0 0.00 0.00 0.00 84 1011.9
20210802080113 61 0.0 0.0 0.00 0.00 0.00 84 1011.8
20210802074553 61 0.0 0.0 0.00 0.00 0.00 84 1011.7
20210802073135 61 0.0 0.0 0.00 0.00 0.00 84 1011.4
20210802071600 62 0.0 0.0 0.00 0.00 0.00 83 1011.4
20210802070046 62 0.0 0.0 0.00 0.00 0.00 83 1011.6
20210802064607 62 0.0 0.0 0.00 0.00 0.00 83 1011.5
20210802063053 62 0.0 0.0 0.00 0.00 0.00 81 1011.7
20210802061531 63 0.0 0.0 0.00 0.00 0.00 80 1011.8
20210802060025 63 0.0 0.0 0.00 0.00 0.00 79 1011.5
20210802054531 63 0.0 0.0 0.00 0.00 0.00 78 1011.4
20210802053109 64 0.0 0.0 0.00 0.00 0.00 78 1011.5
20210802051525 64 0.0 0.0 0.00 0.00 0.00 76 1011.7
20210802050033 64 0.0 0.0 0.00 0.00 0.00 76 1011.6
20210802044517 65 0.0 0.0 0.00 0.00 0.00 75 1011.5
20210802043016 65 0.0 0.0 0.00 0.00 0.00 75 1011.5
20210802041511 65 0.0 0.0 0.00 0.00 0.00 75 1011.6
20210802040013 66 0.0 0.0 0.00 0.00 0.00 74 1011.5
20210802034541 65 0.0 0.0 0.00 0.00 0.00 74 1011.4
20210802033007 66 0.0 0.0 0.00 0.00 0.00 75 1011.3
20210802031508 66 0.0 0.0 0.00 0.00 0.00 75 1011.3
20210802030010 66 0.0 0.0 0.00 0.00 0.00 75 1011.2
20210802024504 66 0.0 0.0 0.00 0.00 0.00 76 1011.3
20210802023003 66 0.0 0.0 0.00 0.00 0.00 76 1011.5
20210802020011 66 0.0 0.0 0.00 0.00 0.00 76 1011.5
20210802014650 66 0.0 0.0 0.00 0.00 0.00 77 1011.3
20210802013147 67 0.0 0.0 0.00 0.00 0.00 75 1011.0
20210802011711 68 0.0 0.0 0.00 0.00 0.00 75 1010.9
20210802010409 68 0.0 0.0 0.00 0.00 0.00 73 1010.5
20210802004651 69 0.0 0.0 0.00 0.00 0.00 71 1010.3
20210802003116 70 0.0 0.0 0.00 0.00 0.00 71 1010.0
20210802001753 71 0.0 0.0 0.00 0.00 0.00 71 1009.8
20210802000310 72 0.0 0.0 0.00 0.00 0.00 70 1009.7
20210801234715 73 0.0 0.0 0.00 0.00 0.00 71 1009.6
20210801233259 74 0.0 0.0 0.00 0.00 0.00 67 1009.3
20210801231640 75 0.0 0.0 0.00 0.00 0.00 68 1009.3
20210801230148 76 0.0 0.0 0.00 0.00 0.00 63 1009.0
20210801224602 77 0.0 0.0 0.00 0.00 0.00 63 1008.7
20210801223159 78 0.0 0.0 0.00 0.00 0.00 63 1008.5
20210801221646 78 0.0 0.0 0.00 0.00 0.00 60 1008.2
20210801220152 79 0.0 0.0 0.00 0.00 0.00 61 1008.1
20210801214635 79 0.0 0.0 0.00 0.00 0.00 63 1008.0
20210801213139 79 0.0 0.0 0.00 0.00 0.00 63 1008.0
20210801211618 79 0.0 0.0 0.00 0.00 0.00 63 1008.2
20210801210140 79 0.0 0.0 0.00 0.00 0.00 63 1008.5
20210801204551 80 0.0 0.0 0.00 0.00 0.00 63 1008.4
20210801203141 79 0.0 0.0 0.00 0.00 0.00 70 1008.6
20210801201602 80 0.0 0.0 0.00 0.00 0.00 63 1008.6
20210801200057 80 0.0 0.0 0.00 0.00 0.00 63 1008.8
20210801194617 80 0.0 0.0 0.00 0.00 0.00 60 1008.7
20210801193111 81 0.0 0.0 0.00 0.00 0.00 61 1008.8